,,Stat6,,Stat2,,Stat8,,Stat9,,Stat10,,Wind1,,Wind1,
time,status,PA1M_AVG,status,PR1M_SUM,status,RH1M_AVG,status,SR1M_AVG,status,TA1M_AVG,status,W1dAve1m,status,W1sAve1m,
2009-02-02, 00:00:00,VALID,918.458,VALID,0,VALID,98.9168,VALID,-0.0339617,VALID,19.2576,VALID,144,VALID,0.322493,
2009-02-02, 00:01:00,VALID,918.47,VALID,0,VALID,98.7719,VALID,0,VALID,19.2773,VALID,140,VALID,0.441602,
2009-02-02, 00:02:00,VALID,918.464,VALID,0,VALID,98.7134,VALID,-0.0169808,VALID,19.2663,VALID,130,VALID,0.285334,
2009-02-02, 00:03:00,VALID,918.45,VALID,0,VALID,98.7185,VALID,0,VALID,19.2673,VALID,133,VALID,0.332031,
2009-02-02, 00:04:00,VALID,918.458,VALID,0,VALID,98.8037,VALID,0,VALID,19.2601,VALID,140,VALID,0.123047,
2009-02-02, 00:05:00,VALID,918.447,VALID,0,VALID,98.969,VALID,-0.0339617,VALID,19.2481,VALID,134,VALID,0.00446429,
2009-02-02, 00:06:00,VALID,918.439,VALID,0,VALID,99.1063,VALID,-0.0169808,VALID,19.2117,VALID,138,VALID,0,
2009-02-02, 00:07:00,VALID,918.419,VALID,0,VALID,99.2602,VALID,-0.0169808,VALID,19.2027,VALID,169,VALID,0,
2009-02-02, 00:08:00,VALID,918.401,VALID,0,VALID,99.3492,VALID,-0.0169808,VALID,19.1802,VALID,164,VALID,0,
2009-02-02, 00:09:00,VALID,918.389,VALID,0,VALID,99.4649,VALID,0,VALID,19.147,VALID,138,VALID,0,
2009-02-02, 00:10:00,VALID,918.375,VALID,0,VALID,99.6048,VALID,0,VALID,19.1111,VALID,143,VALID,0,
2009-02-02, 00:11:00,VALID,918.35,VALID,0,VALID,99.7599,VALID,0,VALID,19.1024,VALID,143,VALID,0,
2009-02-02, 00:12:00,VALID,918.353,VALID,0,VALID,99.9138,VALID,0,VALID,19.0722,VALID,143,VALID,0,
2009-02-02, 00:13:00,VALID,918.351,VALID,0,VALID,100,VALID,0,VALID,19.0667,VALID,143,VALID,0,
2009-02-02, 00:14:00,VALID,918.347,VALID,0,VALID,100,VALID,-0.0169808,VALID,19.0402,VALID,146,VALID,0,
2009-02-02, 00:15:00,VALID,918.337,VALID,0,VALID,100,VALID,0,VALID,18.9976,VALID,158,VALID,0,
2009-02-02, 00:16:00,VALID,918.345,VALID,0,VALID,100,VALID,0,VALID,18.9682,VALID,164,VALID,0,
2009-02-02, 00:17:00,VALID,918.332,VALID,0,VALID,100,VALID,-0.0169808,VALID,18.9591,VALID,166,VALID,0,
2009-02-02, 00:18:00,VALID,918.322,VALID,0,VALID,100,VALID,-0.0509425,VALID,18.933,VALID,184,VALID,0.0450994,
2009-02-02, 00:19:00,VALID,918.312,VALID,0,VALID,100,VALID,0.0169808,VALID,18.9133,VALID,174,VALID,0,
2009-02-02, 00:20:00,VALID,918.285,VALID,0,VALID,100,VALID,-0.0169808,VALID,18.8908,VALID,161,VALID,0,
2009-02-02, 00:21:00,VALID,918.272,VALID,0,VALID,100,VALID,0,VALID,18.8681,VALID,161,VALID,0,
2009-02-02, 00:22:00,VALID,918.256,VALID,0,VALID,100,VALID,-0.0169808,VALID,18.8521,VALID,172,VALID,0,
2009-02-02, 00:23:00,VALID,918.248,VALID,0,VALID,100,VALID,0,VALID,18.8356,VALID,167,VALID,0.0128472,
2009-02-02, 00:24:00,VALID,918.242,VALID,0,VALID,100,VALID,0,VALID,18.8322,VALID,173,VALID,0,
2009-02-02, 00:25:00,VALID,918.23,VALID,0,VALID,100,VALID,0.0169808,VALID,18.8324,VALID,154,VALID,0,
2009-02-02, 00:26:00,VALID,918.233,VALID,0,VALID,100,VALID,0.0169808,VALID,18.8224,VALID,193,VALID,0,
2009-02-02, 00:27:00,VALID,918.219,VALID,0,VALID,100,VALID,0.0339617,VALID,18.8324,VALID,179,VALID,0,
2009-02-02, 00:28:00,VALID,918.218,VALID,0,VALID,100,VALID,0.0169808,VALID,18.8289,VALID,179,VALID,0,
2009-02-02, 00:29:00,VALID,918.209,VALID,0,VALID,100,VALID,0.0339617,VALID,18.8394,VALID,166,VALID,0,
2009-02-02, 00:30:00,VALID,918.198,VALID,0,VALID,100,VALID,0.0169808,VALID,18.8227,VALID,161,VALID,0,
2009-02-02, 00:31:00,VALID,918.194,VALID,0,VALID,100,VALID,0.0169808,VALID,18.8157,VALID,165,VALID,0,
2009-02-02, 00:32:00,VALID,918.17,VALID,0,VALID,100,VALID,0.0339617,VALID,18.8227,VALID,166,VALID,0,
2009-02-02, 00:33:00,VALID,918.157,VALID,0,VALID,100,VALID,0,VALID,18.8294,VALID,164,VALID,0,
2009-02-02, 00:34:00,VALID,918.148,VALID,0,VALID,100,VALID,0.0169808,VALID,18.8356,VALID,152,VALID,0,
2009-02-02, 00:35:00,VALID,918.134,VALID,0,VALID,100,VALID,0,VALID,18.8421,VALID,128,VALID,0.0330669,
2009-02-02, 00:36:00,VALID,918.126,VALID,0,VALID,100,VALID,0.0169808,VALID,18.8519,VALID,112,VALID,0.011102,
2009-02-02, 00:37:00,VALID,918.125,VALID,0,VALID,100,VALID,0,VALID,18.8586,VALID,136,VALID,0,
2009-02-02, 00:38:00,VALID,918.097,VALID,0,VALID,100,VALID,0.0339617,VALID,18.8609,VALID,144,VALID,0,
2009-02-02, 00:39:00,VALID,918.063,VALID,0,VALID,100,VALID,0,VALID,18.8815,VALID,139,VALID,0.0793269,
2009-02-02, 00:40:00,VALID,918.04,VALID,0,VALID,100,VALID,0,VALID,18.8741,VALID,151,VALID,0.00223214,
2009-02-02, 00:41:00,VALID,918.036,VALID,0,VALID,100,VALID,0.0339617,VALID,18.8806,VALID,172,VALID,0,
2009-02-02, 00:42:00,VALID,918.008,VALID,0,VALID,100,VALID,0.0339617,VALID,18.8871,VALID,144,VALID,0.0931784,
2009-02-02, 00:43:00,VALID,918.001,VALID,0,VALID,100,VALID,0.0339617,VALID,18.9102,VALID,124,VALID,0.0887957,
2009-02-02, 00:44:00,VALID,917.975,VALID,0,VALID,100,VALID,0.0169808,VALID,18.9033,VALID,124,VALID,0.0109747,
2009-02-02, 00:45:00,VALID,917.956,VALID,0,VALID,100,VALID,0.0169808,VALID,18.9133,VALID,146,VALID,0,
2009-02-02, 00:46:00,VALID,917.93,VALID,0,VALID,100,VALID,-0.0169808,VALID,18.9205,VALID,147,VALID,0,
2009-02-02, 00:47:00,VALID,917.915,VALID,0,VALID,100,VALID,0,VALID,18.923,VALID,131,VALID,0.0012718,
2009-02-02, 00:48:00,VALID,917.911,VALID,0,VALID,100,VALID,0.0169808,VALID,18.9292,VALID,122,VALID,0.00271739,
2009-02-02, 00:49:00,VALID,917.887,VALID,0,VALID,100,VALID,0.0169808,VALID,18.9332,VALID,126,VALID,0,
2009-02-02, 00:50:00,VALID,917.874,VALID,0,VALID,100,VALID,0,VALID,18.9399,VALID,126,VALID,0,
2009-02-02, 00:51:00,VALID,917.865,VALID,0,VALID,100,VALID,0,VALID,18.933,VALID,129,VALID,0,
2009-02-02, 00:52:00,VALID,917.857,VALID,0,VALID,100,VALID,0,VALID,18.9364,VALID,131,VALID,0,
2009-02-02, 00:53:00,VALID,917.838,VALID,0,VALID,100,VALID,-0.135847,VALID,18.9381,VALID,153,VALID,0,
2009-02-02, 00:54:00,VALID,917.818,VALID,0,VALID,100,VALID,-0.118866,VALID,18.9451,VALID,160,VALID,0,
2009-02-02, 00:55:00,VALID,917.811,VALID,0,VALID,100,VALID,-0.101885,VALID,18.9346,VALID,174,VALID,0,
2009-02-02, 00:56:00,VALID,917.795,VALID,0,VALID,100,VALID,-0.0849042,VALID,18.9379,VALID,142,VALID,0,
2009-02-02, 00:57:00,VALID,917.779,VALID,0,VALID,100,VALID,-0.118866,VALID,18.9384,VALID,155,VALID,0,
2009-02-02, 00:58:00,VALID,917.759,VALID,0,VALID,100,VALID,-0.135847,VALID,18.9416,VALID,167,VALID,0.00625,
2009-02-02, 00:59:00,VALID,917.742,VALID,0,VALID,100,VALID,-0.101885,VALID,18.9541,VALID,146,VALID,0,
2009-02-02, 01:00:00,VALID,917.737,VALID,0,VALID,100,VALID,-0.118866,VALID,18.9506,VALID,152,VALID,0.0543155,
2009-02-02, 01:01:00,VALID,917.712,VALID,0,VALID,100,VALID,-0.118866,VALID,18.9541,VALID,182,VALID,0,
2009-02-02, 01:02:00,VALID,917.695,VALID,0,VALID,100,VALID,-0.118866,VALID,18.9571,VALID,161,VALID,0,
2009-02-02, 01:03:00,VALID,917.684,VALID,0,VALID,100,VALID,-0.135847,VALID,18.9608,VALID,141,VALID,0.0012718,
2009-02-02, 01:04:00,VALID,917.67,VALID,0,VALID,100,VALID,-0.118866,VALID,18.9536,VALID,136,VALID,0,
2009-02-02, 01:05:00,VALID,917.687,VALID,0,VALID,100,VALID,-0.0849042,VALID,18.9541,VALID,137,VALID,0,
2009-02-02, 01:06:00,VALID,917.684,VALID,0,VALID,100,VALID,-0.101885,VALID,18.9409,VALID,139,VALID,0.00109012,
2009-02-02, 01:07:00,VALID,917.678,VALID,0,VALID,100,VALID,-0.0679233,VALID,18.9209,VALID,149,VALID,0,
2009-02-02, 01:08:00,VALID,917.683,VALID,0,VALID,100,VALID,0,VALID,18.9102,VALID,152,VALID,0,
2009-02-02, 01:09:00,VALID,917.679,VALID,0,VALID,100,VALID,0,VALID,18.9072,VALID,152,VALID,0,
2009-02-02, 01:10:00,VALID,917.674,VALID,0,VALID,100,VALID,-0.0169808,VALID,18.904,VALID,153,VALID,0,
2009-02-02, 01:11:00,VALID,917.66,VALID,0,VALID,100,VALID,0.0339617,VALID,18.9107,VALID,155,VALID,0,
2009-02-02, 01:12:00,VALID,917.653,VALID,0,VALID,100,VALID,0,VALID,18.9042,VALID,153,VALID,0,
2009-02-02, 01:13:00,VALID,917.634,VALID,0,VALID,100,VALID,0,VALID,18.8978,VALID,157,VALID,0.0537348,
2009-02-02, 01:14:00,VALID,917.604,VALID,0,VALID,100,VALID,0.0169808,VALID,18.8943,VALID,146,VALID,0.00145349,
2009-02-02, 01:15:00,VALID,917.576,VALID,0,VALID,100,VALID,0.0509425,VALID,18.8806,VALID,163,VALID,0,
2009-02-02, 01:16:00,VALID,917.563,VALID,0,VALID,100,VALID,0.0169808,VALID,18.8806,VALID,165,VALID,0,
2009-02-02, 01:17:00,VALID,917.536,VALID,0,VALID,100,VALID,0.0169808,VALID,18.8743,VALID,166,VALID,0,
2009-02-02, 01:18:00,VALID,917.542,VALID,0,VALID,100,VALID,0,VALID,18.8678,VALID,166,VALID,0,
2009-02-02, 01:19:00,VALID,917.537,VALID,0,VALID,100,VALID,0.0169808,VALID,18.8549,VALID,166,VALID,0,
2009-02-02, 01:20:00,VALID,917.539,VALID,0,VALID,100,VALID,0,VALID,18.8553,VALID,167,VALID,0,
2009-02-02, 01:21:00,VALID,917.525,VALID,0,VALID,100,VALID,0,VALID,18.8523,VALID,167,VALID,0,
2009-02-02, 01:22:00,VALID,917.541,VALID,0,VALID,100,VALID,0,VALID,18.8556,VALID,167,VALID,0,
2009-02-02, 01:23:00,VALID,917.535,VALID,0,VALID,100,VALID,-0.0169808,VALID,18.8558,VALID,167,VALID,0,
2009-02-02, 01:24:00,VALID,917.551,VALID,0,VALID,100,VALID,-0.101885,VALID,18.8526,VALID,167,VALID,0,
2009-02-02, 01:25:00,VALID,917.538,VALID,0,VALID,100,VALID,-0.0849042,VALID,18.8461,VALID,166,VALID,0,
2009-02-02, 01:26:00,VALID,917.529,VALID,0,VALID,100,VALID,-0.0679233,VALID,18.8526,VALID,173,VALID,0,
2009-02-02, 01:27:00,VALID,917.541,VALID,0,VALID,100,VALID,-0.0679233,VALID,18.8563,VALID,154,VALID,0,
2009-02-02, 01:28:00,VALID,917.54,VALID,0,VALID,100,VALID,-0.0849042,VALID,18.8461,VALID,170,VALID,0,
2009-02-02, 01:29:00,VALID,917.537,VALID,0,VALID,100,VALID,-0.0679233,VALID,18.8461,VALID,177,VALID,0,
2009-02-02, 01:30:00,VALID,917.525,VALID,0,VALID,100,VALID,-0.0339617,VALID,18.8523,VALID,165,VALID,0,
2009-02-02, 01:31:00,VALID,917.514,VALID,0,VALID,100,VALID,-0.0679233,VALID,18.866,VALID,164,VALID,0.0221037,
2009-02-02, 01:32:00,VALID,917.518,VALID,0,VALID,100,VALID,-0.0509425,VALID,18.8885,VALID,152,VALID,0.012718,
2009-02-02, 01:33:00,VALID,917.518,VALID,0,VALID,100,VALID,-0.0509425,VALID,18.898,VALID,164,VALID,0.123828,
2009-02-02, 01:34:00,VALID,917.514,VALID,0,VALID,100,VALID,-0.0679233,VALID,18.8982,VALID,153,VALID,0.0261628,
2009-02-02, 01:35:00,VALID,917.502,VALID,0,VALID,100,VALID,-0.101885,VALID,18.9142,VALID,151,VALID,0.159896,
2009-02-02, 01:36:00,VALID,917.487,VALID,0,VALID,100,VALID,-0.0679233,VALID,18.9304,VALID,169,VALID,0.333984,
2009-02-02, 01:37:00,VALID,917.48,VALID,0,VALID,100,VALID,-0.0679233,VALID,18.9629,VALID,151,VALID,0.0588942,
2009-02-02, 01:38:00,VALID,917.466,VALID,0,VALID,100,VALID,-0.0849042,VALID,18.9726,VALID,163,VALID,0.040483,
2009-02-02, 01:39:00,VALID,917.458,VALID,0,VALID,100,VALID,-0.0679233,VALID,18.9921,VALID,159,VALID,0.0365854,
2009-02-02, 01:40:00,VALID,917.454,VALID,0,VALID,100,VALID,-0.0679233,VALID,19.0023,VALID,164,VALID,0,
2009-02-02, 01:41:00,VALID,917.44,VALID,0,VALID,100,VALID,-0.0849042,VALID,18.9853,VALID,159,VALID,0,
2009-02-02, 01:42:00,VALID,917.422,VALID,0,VALID,100,VALID,-0.0849042,VALID,18.9923,VALID,159,VALID,0.0830966,
2009-02-02, 01:43:00,VALID,917.404,VALID,0,VALID,100,VALID,-0.0509425,VALID,18.9856,VALID,156,VALID,0.0558036,
2009-02-02, 01:44:00,VALID,917.397,VALID,0,VALID,100,VALID,-0.0679233,VALID,18.9986,VALID,155,VALID,0,
2009-02-02, 01:45:00,VALID,917.36,VALID,0,VALID,100,VALID,-0.0679233,VALID,19.0083,VALID,167,VALID,0,
2009-02-02, 01:46:00,VALID,917.336,VALID,0,VALID,100,VALID,-0.101885,VALID,19.0083,VALID,140,VALID,0,
2009-02-02, 01:47:00,VALID,917.32,VALID,0,VALID,100,VALID,-0.0679233,VALID,19.0018,VALID,143,VALID,0.00133384,
2009-02-02, 01:48:00,VALID,917.302,VALID,0,VALID,100,VALID,-0.101885,VALID,19.0115,VALID,156,VALID,0,
2009-02-02, 01:49:00,VALID,917.305,VALID,0,VALID,100,VALID,-0.0849042,VALID,19.025,VALID,138,VALID,0.00558036,
2009-02-02, 01:50:00,VALID,917.295,VALID,0,VALID,100,VALID,-0.101885,VALID,19.015,VALID,160,VALID,0,
2009-02-02, 01:51:00,VALID,917.291,VALID,0,VALID,100,VALID,-0.101885,VALID,19.0115,VALID,129,VALID,0,
2009-02-02, 01:52:00,VALID,917.281,VALID,0,VALID,100,VALID,-0.0679233,VALID,19.0113,VALID,134,VALID,0.0117188,
2009-02-02, 01:53:00,VALID,917.278,VALID,0,VALID,100,VALID,-0.0849042,VALID,19.0213,VALID,143,VALID,0.0407986,
2009-02-02, 01:54:00,VALID,917.267,VALID,0,VALID,100,VALID,-0.0679233,VALID,19.0312,VALID,138,VALID,0.0476372,
2009-02-02, 01:55:00,VALID,917.27,VALID,0,VALID,100,VALID,-0.0849042,VALID,19.031,VALID,133,VALID,0.0277158,
2009-02-02, 01:56:00,VALID,917.261,VALID,0,VALID,100,VALID,-0.0679233,VALID,19.0342,VALID,136,VALID,0.00664063,
2009-02-02, 01:57:00,VALID,917.249,VALID,0,VALID,100,VALID,-0.101885,VALID,19.0347,VALID,133,VALID,0,
2009-02-02, 01:58:00,VALID,917.235,VALID,0,VALID,100,VALID,-0.0849042,VALID,19.0442,VALID,142,VALID,0.00514482,
2009-02-02, 01:59:00,VALID,917.199,VALID,0,VALID,100,VALID,-0.101885,VALID,19.0412,VALID,142,VALID,0,
2009-02-02, 02:00:00,VALID,917.197,VALID,0,VALID,100,VALID,-0.0679233,VALID,19.0345,VALID,130,VALID,0.0463299,
2009-02-02, 02:01:00,VALID,917.188,VALID,0,VALID,100,VALID,-0.0679233,VALID,19.031,VALID,153,VALID,0.122944,
2009-02-02, 02:02:00,VALID,917.173,VALID,0,VALID,100,VALID,-0.0849042,VALID,19.0477,VALID,158,VALID,0.00213068,
2009-02-02, 02:03:00,VALID,917.136,VALID,0,VALID,100,VALID,-0.101885,VALID,19.0474,VALID,137,VALID,0,
2009-02-02, 02:04:00,VALID,917.139,VALID,0,VALID,100,VALID,-0.135847,VALID,19.0477,VALID,152,VALID,0.0012429,
2009-02-02, 02:05:00,VALID,917.124,VALID,0,VALID,100,VALID,-0.101885,VALID,19.0477,VALID,151,VALID,0,
2009-02-02, 02:06:00,VALID,917.105,VALID,0,VALID,100,VALID,-0.0849042,VALID,19.0442,VALID,157,VALID,0.00590701,
2009-02-02, 02:07:00,VALID,917.094,VALID,0,VALID,100,VALID,-0.0849042,VALID,19.0245,VALID,156,VALID,0.0477431,
2009-02-02, 02:08:00,VALID,917.083,VALID,0,VALID,100,VALID,-0.101885,VALID,19.018,VALID,149,VALID,0.00372869,
2009-02-02, 02:09:00,VALID,917.092,VALID,0,VALID,100,VALID,-0.101885,VALID,19.0025,VALID,154,VALID,0.0452398,
2009-02-02, 02:10:00,VALID,917.077,VALID,0,VALID,100,VALID,-0.101885,VALID,18.9923,VALID,150,VALID,0,
2009-02-02, 02:11:00,VALID,917.082,VALID,0,VALID,100,VALID,-0.118866,VALID,18.9793,VALID,158,VALID,0,
2009-02-02, 02:12:00,VALID,917.072,VALID,0,VALID,100,VALID,-0.101885,VALID,18.9858,VALID,147,VALID,0.0246094,
2009-02-02, 02:13:00,VALID,917.064,VALID,0,VALID,100,VALID,-0.0509425,VALID,18.9826,VALID,151,VALID,0.0396635,
2009-02-02, 02:14:00,VALID,917.057,VALID,0,VALID,100,VALID,-0.0679233,VALID,18.9791,VALID,148,VALID,0.0144231,
2009-02-02, 02:15:00,VALID,917.042,VALID,0,VALID,100,VALID,-0.0849042,VALID,18.9791,VALID,138,VALID,0,
2009-02-02, 02:16:00,VALID,917.023,VALID,0,VALID,100,VALID,-0.0679233,VALID,18.9863,VALID,147,VALID,0.00142045,
2009-02-02, 02:17:00,VALID,917.01,VALID,0,VALID,100,VALID,-0.101885,VALID,18.9698,VALID,145,VALID,0.00133384,
2009-02-02, 02:18:00,VALID,916.993,VALID,0,VALID,100,VALID,-0.101885,VALID,18.9664,VALID,146,VALID,0,
2009-02-02, 02:19:00,VALID,916.995,VALID,0,VALID,100,VALID,-0.118866,VALID,18.9631,VALID,147,VALID,0,
2009-02-02, 02:20:00,VALID,916.985,VALID,0,VALID,100,VALID,-0.0509425,VALID,18.9661,VALID,155,VALID,0,
2009-02-02, 02:21:00,VALID,916.99,VALID,0,VALID,100,VALID,-0.0849042,VALID,18.9761,VALID,151,VALID,0,
2009-02-02, 02:22:00,VALID,916.975,VALID,0,VALID,100,VALID,-0.0849042,VALID,18.9691,VALID,151,VALID,0,
2009-02-02, 02:23:00,VALID,916.978,VALID,0,VALID,100,VALID,-0.0679233,VALID,18.9691,VALID,164,VALID,0,
2009-02-02, 02:24:00,VALID,916.976,VALID,0,VALID,100,VALID,-0.0339617,VALID,18.9756,VALID,165,VALID,0,
2009-02-02, 02:25:00,VALID,916.963,VALID,0,VALID,100,VALID,-0.0339617,VALID,18.9527,VALID,165,VALID,0,
2009-02-02, 02:26:00,VALID,916.972,VALID,0,VALID,100,VALID,-0.0339617,VALID,18.936,VALID,165,VALID,0,
2009-02-02, 02:27:00,VALID,916.967,VALID,0,VALID,100,VALID,-0.0169808,VALID,18.9257,VALID,165,VALID,0,
2009-02-02, 02:28:00,VALID,916.951,VALID,0,VALID,100,VALID,-0.0339617,VALID,18.9167,VALID,165,VALID,0,
2009-02-02, 02:29:00,VALID,916.949,VALID,0,VALID,100,VALID,0,VALID,18.9072,VALID,165,VALID,0,
2009-02-02, 02:30:00,VALID,916.946,VALID,0,VALID,100,VALID,-0.0169808,VALID,18.8943,VALID,165,VALID,0,
2009-02-02, 02:31:00,VALID,916.948,VALID,0,VALID,100,VALID,-0.0169808,VALID,18.8848,VALID,170,VALID,0,
2009-02-02, 02:32:00,VALID,916.937,VALID,0,VALID,100,VALID,-0.0339617,VALID,18.8746,VALID,148,VALID,0,
2009-02-02, 02:33:00,VALID,916.922,VALID,0,VALID,100,VALID,-0.0169808,VALID,18.8943,VALID,133,VALID,0,
2009-02-02, 02:34:00,VALID,916.913,VALID,0,VALID,100,VALID,-0.0339617,VALID,18.8913,VALID,140,VALID,0,
2009-02-02, 02:35:00,VALID,916.893,VALID,0,VALID,100,VALID,-0.0169808,VALID,18.8813,VALID,146,VALID,0,
2009-02-02, 02:36:00,VALID,916.879,VALID,0,VALID,100,VALID,-0.0339617,VALID,18.8618,VALID,146,VALID,0,
2009-02-02, 02:37:00,VALID,916.872,VALID,0,VALID,100,VALID,-0.0169808,VALID,18.8553,VALID,146,VALID,0,
2009-02-02, 02:38:00,VALID,916.87,VALID,0,VALID,100,VALID,-0.0169808,VALID,18.8459,VALID,146,VALID,0,
2009-02-02, 02:39:00,VALID,916.87,VALID,0,VALID,100,VALID,-0.0169808,VALID,18.8257,VALID,146,VALID,0,
2009-02-02, 02:40:00,VALID,916.869,VALID,0,VALID,100,VALID,-0.0169808,VALID,18.8259,VALID,146,VALID,0,
2009-02-02, 02:41:00,VALID,916.868,VALID,0,VALID,100,VALID,0,VALID,18.8159,VALID,146,VALID,0,
2009-02-02, 02:42:00,VALID,916.861,VALID,0,VALID,100,VALID,-0.0169808,VALID,18.8164,VALID,146,VALID,0,
2009-02-02, 02:43:00,VALID,916.863,VALID,0,VALID,100,VALID,-0.0169808,VALID,18.8227,VALID,146,VALID,0,
2009-02-02, 02:44:00,VALID,916.846,VALID,0,VALID,100,VALID,-0.0339617,VALID,18.8229,VALID,146,VALID,0,
2009-02-02, 02:45:00,VALID,916.844,VALID,0,VALID,100,VALID,-0.0339617,VALID,18.8227,VALID,146,VALID,0,
2009-02-02, 02:46:00,VALID,916.837,VALID,0,VALID,100,VALID,-0.0339617,VALID,18.8224,VALID,146,VALID,0,
2009-02-02, 02:47:00,VALID,916.815,VALID,0,VALID,100,VALID,-0.0339617,VALID,18.8162,VALID,146,VALID,0,
2009-02-02, 02:48:00,VALID,916.802,VALID,0,VALID,100,VALID,-0.0339617,VALID,18.8197,VALID,146,VALID,0,
2009-02-02, 02:49:00,VALID,916.788,VALID,0,VALID,100,VALID,-0.0339617,VALID,18.8065,VALID,146,VALID,0,
2009-02-02, 02:50:00,VALID,916.772,VALID,0,VALID,100,VALID,0,VALID,18.8002,VALID,146,VALID,0,
2009-02-02, 02:51:00,VALID,916.749,VALID,0,VALID,100,VALID,-0.0169808,VALID,18.7902,VALID,146,VALID,0,
2009-02-02, 02:52:00,VALID,916.728,VALID,0,VALID,100,VALID,-0.0509425,VALID,18.7805,VALID,146,VALID,0,
2009-02-02, 02:53:00,VALID,916.725,VALID,0,VALID,100,VALID,-0.0169808,VALID,18.7675,VALID,140,VALID,0,
2009-02-02, 02:54:00,VALID,916.714,VALID,0,VALID,100,VALID,0,VALID,18.7386,VALID,116,VALID,0,
2009-02-02, 02:55:00,VALID,916.704,VALID,0,VALID,100,VALID,-0.0339617,VALID,18.7219,VALID,115,VALID,0,
2009-02-02, 02:56:00,VALID,916.685,VALID,0,VALID,100,VALID,-0.0169808,VALID,18.7326,VALID,116,VALID,0,
2009-02-02, 02:57:00,VALID,916.673,VALID,0,VALID,100,VALID,-0.0169808,VALID,18.7314,VALID,135,VALID,0,
2009-02-02, 02:58:00,VALID,916.643,VALID,0,VALID,100,VALID,-0.0169808,VALID,18.7381,VALID,141,VALID,0,
2009-02-02, 02:59:00,VALID,916.635,VALID,0,VALID,100,VALID,0,VALID,18.7576,VALID,143,VALID,0,
2009-02-02, 03:00:00,VALID,916.623,VALID,0,VALID,100,VALID,0,VALID,18.774,VALID,143,VALID,0.0452009,
2009-02-02, 03:01:00,VALID,916.613,VALID,0,VALID,100,VALID,-0.0169808,VALID,18.7705,VALID,149,VALID,0,
2009-02-02, 03:02:00,VALID,916.601,VALID,0,VALID,100,VALID,-0.0169808,VALID,18.7673,VALID,158,VALID,0,
2009-02-02, 03:03:00,VALID,916.597,VALID,0,VALID,100,VALID,-0.0339617,VALID,18.78,VALID,167,VALID,0,
2009-02-02, 03:04:00,VALID,916.592,VALID,0,VALID,100,VALID,-0.0169808,VALID,18.7898,VALID,157,VALID,0,
2009-02-02, 03:05:00,VALID,916.596,VALID,0,VALID,100,VALID,-0.0509425,VALID,18.797,VALID,153,VALID,0,
2009-02-02, 03:06:00,VALID,916.594,VALID,0,VALID,100,VALID,0.0169808,VALID,18.7703,VALID,148,VALID,0,
2009-02-02, 03:07:00,VALID,916.605,VALID,0,VALID,100,VALID,-0.0339617,VALID,18.7513,VALID,147,VALID,0,
2009-02-02, 03:08:00,VALID,916.605,VALID,0,VALID,100,VALID,-0.0169808,VALID,18.7386,VALID,147,VALID,0,
2009-02-02, 03:09:00,VALID,916.62,VALID,0,VALID,100,VALID,-0.0169808,VALID,18.7254,VALID,149,VALID,0,
2009-02-02, 03:10:00,VALID,916.627,VALID,0,VALID,100,VALID,-0.0339617,VALID,18.7161,VALID,148,VALID,0,
2009-02-02, 03:11:00,VALID,916.622,VALID,0,VALID,100,VALID,-0.0339617,VALID,18.7027,VALID,158,VALID,0,
2009-02-02, 03:12:00,VALID,916.622,VALID,0,VALID,100,VALID,-0.0339617,VALID,18.6869,VALID,161,VALID,0,
2009-02-02, 03:13:00,VALID,916.616,VALID,0,VALID,100,VALID,-0.0169808,VALID,18.6804,VALID,159,VALID,0,
2009-02-02, 03:14:00,VALID,916.609,VALID,0,VALID,100,VALID,-0.0169808,VALID,18.68,VALID,157,VALID,0,
2009-02-02, 03:15:00,VALID,916.598,VALID,0,VALID,100,VALID,-0.0169808,VALID,18.6735,VALID,158,VALID,0,
2009-02-02, 03:16:00,VALID,916.59,VALID,0,VALID,100,VALID,-0.0339617,VALID,18.6672,VALID,157,VALID,0,
2009-02-02, 03:17:00,VALID,916.586,VALID,0,VALID,100,VALID,-0.0509425,VALID,18.6542,VALID,157,VALID,0,
2009-02-02, 03:18:00,VALID,916.557,VALID,0,VALID,100,VALID,-0.0339617,VALID,18.6607,VALID,157,VALID,0,
2009-02-02, 03:19:00,VALID,916.559,VALID,0,VALID,100,VALID,-0.0169808,VALID,18.667,VALID,151,VALID,0,
2009-02-02, 03:20:00,VALID,916.551,VALID,0,VALID,100,VALID,-0.0169808,VALID,18.673,VALID,151,VALID,0,
2009-02-02, 03:21:00,VALID,916.527,VALID,0,VALID,100,VALID,-0.0169808,VALID,18.6695,VALID,151,VALID,0,
2009-02-02, 03:22:00,VALID,916.514,VALID,0,VALID,100,VALID,-0.0509425,VALID,18.6929,VALID,151,VALID,0.00872093,
2009-02-02, 03:23:00,VALID,916.494,VALID,0,VALID,100,VALID,0,VALID,18.7027,VALID,158,VALID,0,
2009-02-02, 03:24:00,VALID,916.487,VALID,0,VALID,100,VALID,0,VALID,18.7228,VALID,156,VALID,0,
2009-02-02, 03:25:00,VALID,916.471,VALID,0,VALID,100,VALID,-0.0509425,VALID,18.7319,VALID,154,VALID,0,
2009-02-02, 03:26:00,VALID,916.457,VALID,0,VALID,100,VALID,0,VALID,18.7379,VALID,152,VALID,0,
2009-02-02, 03:27:00,VALID,916.46,VALID,0,VALID,100,VALID,0,VALID,18.774,VALID,168,VALID,0,
2009-02-02, 03:28:00,VALID,916.453,VALID,0,VALID,100,VALID,0,VALID,18.7773,VALID,174,VALID,0,
2009-02-02, 03:29:00,VALID,916.447,VALID,0,VALID,100,VALID,-0.0169808,VALID,18.787,VALID,153,VALID,0,
2009-02-02, 03:30:00,VALID,916.432,VALID,0,VALID,100,VALID,-0.0169808,VALID,18.7768,VALID,158,VALID,0,
2009-02-02, 03:31:00,VALID,916.431,VALID,0,VALID,100,VALID,0,VALID,18.79,VALID,159,VALID,0,
2009-02-02, 03:32:00,VALID,916.437,VALID,0,VALID,100,VALID,0.0169808,VALID,18.7807,VALID,172,VALID,0,
2009-02-02, 03:33:00,VALID,916.433,VALID,0,VALID,100,VALID,0,VALID,18.7738,VALID,175,VALID,0,
2009-02-02, 03:34:00,VALID,916.434,VALID,0,VALID,100,VALID,0,VALID,18.7705,VALID,180,VALID,0,
2009-02-02, 03:35:00,VALID,916.412,VALID,0,VALID,100,VALID,0,VALID,18.7573,VALID,175,VALID,0,
2009-02-02, 03:36:00,VALID,916.394,VALID,0,VALID,100,VALID,0,VALID,18.7705,VALID,174,VALID,0.341463,
2009-02-02, 03:37:00,VALID,916.381,VALID,0,VALID,100,VALID,0,VALID,18.8037,VALID,174,VALID,0.139915,
2009-02-02, 03:38:00,VALID,916.368,VALID,0,VALID,100,VALID,-0.0169808,VALID,18.8322,VALID,161,VALID,0.281436,
2009-02-02, 03:39:00,VALID,916.367,VALID,0,VALID,100,VALID,0,VALID,18.8644,VALID,175,VALID,0.196646,
2009-02-02, 03:40:00,VALID,916.377,VALID,0,VALID,100,VALID,-0.0339617,VALID,18.9003,VALID,178,VALID,0.138393,
2009-02-02, 03:41:00,VALID,916.384,VALID,0,VALID,100,VALID,-0.0509425,VALID,18.933,VALID,172,VALID,0.0383003,
2009-02-02, 03:42:00,VALID,916.386,VALID,0,VALID,100,VALID,-0.0169808,VALID,18.9459,VALID,172,VALID,0.117932,
2009-02-02, 03:43:00,VALID,916.385,VALID,0,VALID,100,VALID,0,VALID,18.9591,VALID,163,VALID,0.202939,
2009-02-02, 03:44:00,VALID,916.389,VALID,0,VALID,100,VALID,-0.0339617,VALID,18.9754,VALID,159,VALID,0.0689538,
2009-02-02, 03:45:00,VALID,916.376,VALID,0,VALID,100,VALID,-0.0509425,VALID,18.9823,VALID,157,VALID,0.134766,
2009-02-02, 03:46:00,VALID,916.357,VALID,0,VALID,100,VALID,-0.0509425,VALID,18.9888,VALID,156,VALID,0.520486,
2009-02-02, 03:47:00,VALID,916.37,VALID,0,VALID,100,VALID,-0.0679233,VALID,18.9988,VALID,164,VALID,0.245808,